Regional Weather Roundup
Issued by NWS Mt. Holly, NJ

Home | Current Version | Previous Version | Text Only | Print | Product List | Glossary On
Versions: 1 2 3 4 5 6 7 8 9 10 11 12 13 14 15 16 17 18 19 20 21 22 23 24 25 26 27 28 29 30 31 32 33 34 35 36 37 38 39 40 41 42 43 44 45 46 47 48 49 50
000
ASUS41 KPHI 041412
RWRPHI

REGIONAL WEATHER ROUNDUP
NATIONAL WEATHER SERVICE MOUNT HOLLY NJ
1000 AM EDT TUE AUG 04 2015

NOTE:  "FAIR" INDICATES FEW OR NO CLOUDS BELOW 12,000 FEET WITH NO
SIGNIFICANT WEATHER AND/OR OBSTRUCTIONS TO VISIBILITY.

 * = STATION DOES NOT REPORT PRECIPITATION (E.G. RAIN, SNOW, ETC.)
        OR FOG.

NJZ015>026-041500-
SOUTHERN NEW JERSEY

CITY           SKY/WX    TMP DP  RH WIND       PRES   REMARKS
POMONA         MOSUNNY   85  73  67 SW13      29.89S HX  91
RIO GRANDE*    SUNNY     84  72  65 SW14G20   29.92R
MILLVILLE      SUNNY     85  71  63 VRB6      29.90R HX  90
WRIGHTSTOWN    SUNNY     81  69  65 W17       29.87R
MOUNT HOLLY    SUNNY     80  68  66 SW9G17    29.89R
TRENTON        SUNNY     79  67  66 SW8       29.88R

$$
NJZ001>014-041500-
NORTHERN NEW JERSEY

CITY           SKY/WX    TMP DP  RH WIND       PRES   REMARKS
SUSSEX         SUNNY     75  65  70 SW8       29.86S
ANDOVER*         N/A     74  65  73 MISG      29.88S
MORRISTOWN     SUNNY     81  66  61 W10       29.86R
NEWARK         MOSUNNY   80  67  64 SW12      29.85S
TETERBORO      SUNNY     81  63  54 SW7       29.83F
CALDWELL       SUNNY     79  63  57 VRB6      29.85F
SOMERVILLE     SUNNY     78  68  71 VRB5      29.85S
ALLAIRE*       SUNNY     81  66  61 SW12G20   29.87S
TOMS RIVER*      N/A     84  64  51 W13       29.88S

$$
PAZ043-044-047-054-055-060>062-066>071-041500-
EASTERN PENNSYLVANIA

CITY           SKY/WX    TMP DP  RH WIND       PRES   REMARKS
PHILADELPHIA   MOSUNNY   82  65  56 SW14      29.90R
NORTH PHILA    SUNNY     82  64  54 W9        29.90R
BLUE BELL      SUNNY     79  70  73 SW6       29.90R
DOYLESTOWN     SUNNY     76  67  73 W8        29.89R
QUAKERTOWN*    SUNNY     75  66  73 SW7       29.91R
POTTSTOWN      SUNNY     77  67  71 W6        29.91S
LANCASTER      SUNNY     77  67  71 SW9       29.91S
COATESVILLE    SUNNY     77  70  78 W6        29.93S
READING        SUNNY     78  65  63 W6        29.89R
ALLENTOWN      SUNNY     76  66  71 SW10      29.88S
MOUNT POCONO   SUNNY     72  63  73 W10       29.92S
HAZLETON       SUNNY     72  64  78 W5        29.95S
WILKES BARRE   MOSUNNY   75  64  68 W10       29.88S

$$
DEZALL-MDZ008-012-015-019-020-041500-
DELAWARE AND EASTERN MARYLAND

CITY           SKY/WX    TMP DP  RH WIND       PRES   REMARKS
WILMINGTON     SUNNY     81  68  64 W7        29.91R
DOVER          SUNNY     84  73  68 SW10      29.89S HX  90
GEORGETOWN     SUNNY     84  73  69 SW9       29.92S HX  90
EASTON         SUNNY     81  72  74 SW13      29.95S
ABERDEEN       SUNNY     81  72  74 SW7       29.92
PATUXENT       MOSUNNY   83  71  67 W12       29.93S
OCEAN CITY     SUNNY     87  73  62 SW16      29.92F HX  94
WALLOPS ISLAND MOSUNNY   83  75  77 W14       29.95S HX  90
CAMBRIDGE      SUNNY     82  70  65 SW8       29.92S
SALISBURY      SUNNY     83  73  72 SW12      29.93S

$$
PAZ001-021-NYZ056-072-MDZ011-DCZ001-041500-
OTHER NEARBY LOCATIONS

CITY           SKY/WX    TMP DP  RH WIND       PRES   REMARKS
HARRISBURG     SUNNY     79  67  66 VRB3      29.90S
STATE COLLEGE  SUNNY     72  61  68 W14       29.95R
WILLIAMSPORT   MOSUNNY   76  62  62 W12       29.89R
BINGHAMTON     SUNNY     70  62  76 W9        29.90S
NEW YORK CITY  SUNNY     77  67  71 MISG      29.88R
BALTIMORE      MOSUNNY   79  67  66 W7        29.92S
WASHINGTON DC  MOSUNNY   85  68  56 SW5       29.94R

$$



USA.gov is the U.S. government's official web portal to all federal, state and local government web resources and services.